Marrakech, Morocco

11:15 AM WET on February 25, 2018 (GMT +0000)
Marrakech

Weather History for GMMX - June, 2012

Change the Weather History Date:

Tuesday, June 5, 2012

  Actual Average Record
Temperature  
Mean Temperature 81 °F -  
Max Temperature 98 °F 91 °F 104 °F (2001)
Min Temperature 64 °F 64 °F 56 °F (2013)
Cooling Degree Days 16    
Growing Degree Days 31 (Base 50)    
Moisture  
Dew Point 53 °F    
Average Humidity 39    
Maximum Humidity 64    
Minimum Humidity 12    
Precipitation  
Precipitation 0.00 in 0.01 in - ()
Sea Level Pressure  
Sea Level Pressure 30.01 in    
Wind  
Wind Speed 5 mph ()    
Max Wind Speed 16 mph    
Max Gust Speed -    
Visibility 6.2 miles    
Events      
Averages and records for this station are not official NWS values.
T = Trace of Precipitation, MM = Missing Value Source: Averaged Metar Reports

Daily Weather History Graph

Daily Weather History Graph

Search for Another Location

Airport or City:

Trip Planner

Search our weather history database for the weather conditions in past years. The results will help you decide how hot, cold, wet, or windy it might be!

Date:

Astronomy

Jun. 05, 2012 Rise Set
Actual Time 6:26 AM WEST 8:34 PM WEST
Civil Twilight 5:59 AM WEST 9:02 PM WEST
Nautical Twilight 5:25 AM WEST 9:36 PM WEST
Astronomical Twilight 4:48 AM WEST 10:13 PM WEST
Moon 9:50 PM WEST (6/5) 7:22 AM WEST (6/5)
Length of Visible Light 15h 03m
Length of Day
14h 07m
Full, 99% of the Moon is Illuminated
Jun 5
Full
Jun 11
Last Quarter
Jun 19
New
Jun 27
First Quarter
Jul 3
Full

Hourly Weather History & Observations

Time (WEST) Temp. Heat Index Dew Point Humidity Pressure Visibility Wind Dir Wind Speed Gust Speed Precip Events Conditions
12:00 AM 77.0 °F - 51.8 °F 41% 30.06 in - NNE 8.1 mph - N/A   Clear
12:30 AM 77.0 °F - 51.8 °F 41% 30.06 in - NNE 6.9 mph - N/A   Clear
1:00 AM 75 °F - 52 °F 33% 30.00 in 6 mi NNE 5.8 mph - -  
1:00 AM 75.2 °F - 51.8 °F 44% 30.06 in - NNE 5.8 mph - N/A   Clear
1:30 AM 75.2 °F - 51.8 °F 44% 30.06 in - North 5.8 mph - N/A   Clear
2:00 AM 73.4 °F - 51.8 °F 47% 30.04 in - NNE 5.8 mph - N/A   Clear
2:30 AM 73.4 °F - 51.8 °F 47% 30.04 in - NNE 3.5 mph - N/A   Clear
3:00 AM 71.6 °F - 51.8 °F 50% 30.04 in - NNE 3.5 mph - N/A   Clear
3:30 AM 71.6 °F - 51.8 °F 50% 30.04 in - North 4.6 mph - N/A   Clear
4:00 AM 71 °F - 52 °F 41% 29.98 in 6 mi NE 4.6 mph - -  
4:00 AM 71.6 °F - 51.8 °F 50% 30.04 in - NNE 4.6 mph - N/A   Clear
4:30 AM 69.8 °F - 53.6 °F 56% 30.01 in - North 3.5 mph - N/A   Clear
5:00 AM 68.0 °F - 53.6 °F 60% 30.01 in - WSW 3.5 mph - N/A   Clear
5:30 AM 68.0 °F - 53.6 °F 60% 30.01 in - SW 4.6 mph - N/A   Clear
6:00 AM 66.2 °F - 53.6 °F 64% 30.04 in 6.2 mi WSW 3.5 mph - N/A   Scattered Clouds
6:30 AM 66.2 °F - 53.6 °F 64% 30.04 in 6.2 mi Calm Calm - N/A   Scattered Clouds
7:00 AM 66 °F - 53 °F 53% 30.00 in 6 mi WSW 1.2 mph - -   Partly Cloudy
7:00 AM 66.2 °F - 53.6 °F 64% 30.04 in 6.2 mi Variable 2.3 mph - N/A   Scattered Clouds
7:30 AM 68.0 °F - 50.0 °F 52% 30.04 in 6.2 mi NE 4.6 mph - N/A   Partly Cloudy
8:00 AM 69.8 °F - 50.0 °F 49% 30.06 in 6.2 mi NE 4.6 mph - N/A   Partly Cloudy
8:30 AM 71.6 °F - 51.8 °F 50% 30.06 in - NE 5.8 mph - N/A   Clear
9:00 AM 73.4 °F - 50.0 °F 44% 30.06 in - NNE 4.6 mph - N/A   Clear
9:30 AM 75.2 °F - 51.8 °F 44% 30.06 in - Variable 2.3 mph - N/A   Clear
10:00 AM 76 °F - 52 °F 32% 30.00 in 6 mi NNE 3.5 mph - -  
10:00 AM 75.2 °F - 51.8 °F 44% 30.06 in - Variable 2.3 mph - N/A   Clear
10:30 AM 77.0 °F - 51.8 °F 41% 30.06 in - Variable 2.3 mph - N/A   Clear
11:00 AM 78.8 °F - 51.8 °F 39% 30.06 in - North 4.6 mph - N/A   Clear
11:30 AM 80.6 °F - 51.8 °F 37% 30.06 in - Variable 4.6 mph - N/A   Clear
12:00 PM 82.4 °F - 51.8 °F 35% 30.06 in - Variable 4.6 mph - N/A   Clear
12:30 PM 84.2 °F - 51.8 °F 33% 30.04 in - NNE 6.9 mph - N/A   Clear
1:00 PM 86 °F - 53 °F 22% 29.94 in 6 mi NE 5.8 mph - -  
1:00 PM 86.0 °F - 51.8 °F 31% 30.04 in - Variable 4.6 mph - N/A   Clear
1:30 PM 87.8 °F - 51.8 °F 29% 30.04 in 6.2 mi North 6.9 mph - N/A   Partly Cloudy
2:00 PM 89.6 °F - 51.8 °F 27% 30.01 in 6.2 mi Variable 5.8 mph - N/A   Partly Cloudy
2:30 PM 91.4 °F 89.1 °F 53.6 °F 28% 30.01 in 6.2 mi Variable 3.5 mph - N/A   Partly Cloudy
3:00 PM 93.2 °F 90.8 °F 53.6 °F 26% 29.98 in 6.2 mi Variable 4.6 mph - N/A   Partly Cloudy
3:30 PM 93.2 °F 90.8 °F 53.6 °F 26% 29.98 in 6.2 mi Variable 4.6 mph - N/A   Partly Cloudy
4:00 PM 95 °F - 52 °F 14% 29.84 in 6 mi ENE 5.8 mph - -   Scattered Clouds
4:00 PM 95.0 °F - 51.8 °F 23% 29.95 in 6.2 mi ENE 6.9 mph - N/A   Partly Cloudy
4:30 PM 96.8 °F - 51.8 °F 22% 29.95 in 6.2 mi NNE 6.9 mph - N/A   Partly Cloudy
5:00 PM 96.8 °F - 51.8 °F 22% 29.95 in 6.2 mi Variable 8.1 mph - N/A   Scattered Clouds
5:30 PM 96.8 °F - 50.0 °F 20% 29.95 in 6.2 mi ENE 6.9 mph - N/A   Scattered Clouds
6:00 PM 96.8 °F - 50.0 °F 20% 29.95 in 6.2 mi NE 5.8 mph - N/A   Scattered Clouds
6:30 PM 98.6 °F - 51.8 °F 21% 29.95 in 6.2 mi East 10.4 mph - N/A   Scattered Clouds
7:00 PM 97 °F - 50 °F 12% 29.81 in 6 mi NE 5.8 mph - -   Scattered Clouds
7:00 PM 96.8 °F - 50.0 °F 20% 29.95 in 6.2 mi ENE 6.9 mph - N/A   Partly Cloudy
7:30 PM 93.2 °F 91.9 °F 57.2 °F 30% 29.95 in 6.2 mi North 12.7 mph - N/A   Scattered Clouds
8:00 PM 91.4 °F 89.9 °F 57.2 °F 31% 29.95 in 6.2 mi North 13.8 mph - N/A   Scattered Clouds
8:30 PM 87.8 °F 86.1 °F 55.4 °F 33% 29.98 in 6.2 mi NNE 16.1 mph - N/A   Scattered Clouds
9:00 PM 86.0 °F 84.9 °F 57.2 °F 37% 29.98 in 6.2 mi NNE 12.7 mph - N/A   Mostly Cloudy
9:30 PM 84.2 °F 83.8 °F 59.0 °F 42% 29.98 in 6.2 mi NNE 9.2 mph - N/A   Mostly Cloudy
10:00 PM 82 °F - 59 °F 35% 29.91 in 6 mi NE 10.4 mph - -   Scattered Clouds
10:00 PM 82.4 °F 82.5 °F 59.0 °F 45% 30.01 in 6.2 mi NE 10.4 mph - N/A   Mostly Cloudy
10:30 PM 80.6 °F 81.1 °F 59.0 °F 48% 30.01 in 6.2 mi NNE 12.7 mph - N/A   Mostly Cloudy
11:00 PM 78.8 °F - 59.0 °F 51% 30.01 in 6.2 mi ENE 8.1 mph - N/A   Mostly Cloudy
11:30 PM 78.8 °F - 59.0 °F 51% 30.04 in 6.2 mi ENE 8.1 mph - N/A   Mostly Cloudy